[[{"header":{"parameterUnit":"m.s-1","parameterCategory":1,"la1":30.2991,"la2":30.254,"lo1":-89.0895,"lo2":-89.0444,"dy":0.0017,"dx":0.0017,"nx":28,"ny":28,"refTime":"2025-09-11T21:00:00:Z","depth":0,"parameterNumber":2,"parameterNumberName":"U-component_of_WINDS"},"data":[0,0,0,0,0,0,0,0,0,0,0,0,0,0,0,0,0,0,0,0,0,0,0,0,0,0,0,0,0,0,0,0,0,0,0,0,0,0,0,0,0,0,0,0,0,0,0,0,0,0,0,0,0,0,0,0,0,0,0.3721,0.3722,0,0.3884,0.3885,0.3887,0.3911,0.391,0.3908,0.3907,0.4076,0.4081,0.4087,0,0,0,0,0,0,0,0,0,0,0,0,0,0.343,0.3436,0.3721,0.3723,0.3725,0.3883,0.3885,0.3888,0.3912,0.391,0.3908,0.3906,0.4074,0.4081,0.4088,0,0,0,0,0,0,0,0,0,0,0,0,0,0.3571,0.3437,0.372,0.3756,0.376,0.3883,0.3886,0.3888,0.3912,0.391,0.3907,0.3905,0.4071,0.408,0.4089,0.4188,0,0,0.4116,0.4119,0,0,0,0,0,0,0,0,0.3563,0.3582,0.3748,0.3753,0.3759,0.3875,0.3845,0.3989,0.3912,0.3854,0.3907,0.3904,0.4011,0.4024,0.406,0.4196,0.4203,0.4116,0.4122,0.4125,0.4128,0,0,0,0,0,0,0,0.3553,0.3575,0.3785,0.3751,0.3757,0.3763,0.3781,0.3872,0.3943,0.3859,0.3861,0.388,0.4013,0.4051,0.4064,0.4205,0.4116,0.4124,0.4129,0.4133,0.4428,0.443,0,0,0,0,0,0,0.3537,0.3567,0.378,0.379,0.3653,0.377,0.379,0.384,0.3942,0.3956,0.3882,0.3881,0.4037,0.4054,0.407,0.4191,0.4125,0.4134,0.4139,0.4425,0.4428,0.4431,0,0,0,0,0,0,0.3531,0.3556,0.3773,0.3679,0.3707,0.3778,0.3834,0.3844,0.3882,0.3959,0.3972,0.3908,0.4036,0.4058,0.4157,0.4197,0.4138,0.4146,0.4422,0.4426,0.4429,0.4434,0,0,0,0,0,0,0.3522,0.3553,0.3592,0.368,0.3712,0.3858,0.3836,0.3849,0.3897,0.3897,0.3987,0.4,0.4036,0.4144,0.4166,0.4208,0.4153,0.4419,0.4424,0.4428,0.4431,0.4438,0.4444,0,0,0,0,0,0.3512,0.3588,0.3594,0.3619,0.3762,0.386,0.3879,0.3919,0.39,0.394,0.3988,0.3997,0.4189,0.4154,0.4179,0.4224,0.4416,0.4422,0.4428,0.4428,0.4437,0.4444,0,0,0,0,0,0,0.3505,0.36,0.3608,0.3714,0.3779,0.3864,0.3915,0.3927,0.3998,0.3996,0.4042,0.4062,0.4159,0.4202,0.4161,0.4324,0.4301,0.4312,0.4293,0.4302,0.4308,0.4295,0.416,0,0,0,0,0,0.3515,0.3587,0.3667,0.3753,0.3785,0.3844,0.3889,0.3913,0.3983,0.401,0.4067,0.4134,0.4209,0.4258,0.4331,0.4437,0.4456,0.448,0.4487,0.4492,0.45,0.4557,0.4568,0.445,0.445,0.4449,0,0,0.3538,0.3599,0.3642,0.3753,0.3806,0.3879,0.3867,0.3946,0.4,0.4023,0.412,0.4163,0.4241,0.4343,0.4391,0.4382,0.4537,0.4499,0.4502,0.4509,0.4564,0.4575,0.4585,0.4453,0.4453,0.4452,0,0,0.3617,0.3671,0.3748,0.38,0.388,0.3919,0.3937,0.402,0.4049,0.4147,0.4165,0.423,0.4359,0.4413,0.4458,0.4554,0.4564,0.4577,0.461,0.4665,0.4674,0.4683,0.4715,0.4727,0.4585,0.4585,0.4585,0,0.3636,0.3747,0.3786,0.3863,0.3911,0.3933,0.401,0.406,0.416,0.4192,0.418,0.434,0.4394,0.4508,0.4531,0.4567,0.4589,0.4567,0.4669,0.4678,0.4687,0.4719,0.4731,0.4586,0.4586,0.4586,0.4586,0,0.3765,0.3841,0.3894,0.3988,0.4041,0.4118,0.4169,0.4219,0.4238,0.4277,0.4375,0.4441,0.4527,0.4556,0.4576,0.4672,0.4664,0.466,0.4638,0.4698,0.4729,0.4742,0.4587,0.4587,0.4587,0.4587,0,0,0.3845,0.3958,0.3977,0.4019,0.4107,0.4167,0.4244,0.4327,0.4368,0.4435,0.45,0.4608,0.4604,0.4654,0.4681,0.4729,0.4798,0.4719,0.4721,0.473,0.4906,0.4907,0.4921,0.4805,0.4808,0.481,0.4899,0,0.3933,0.4071,0.4108,0.4225,0.4295,0.4315,0.4382,0.4443,0.4482,0.4546,0.4589,0.4664,0.4654,0.4684,0.4732,0.4779,0.4834,0.4774,0.4866,0.4868,0.4845,0.4937,0.494,0.5021,0.4911,0.4913,0.4915,0,0.4055,0.4123,0.4247,0.4324,0.4354,0.4414,0.4492,0.4554,0.4623,0.4647,0.4701,0.4723,0.4803,0.4776,0.4886,0.4844,0.4884,0.4912,0.4916,0.4926,0.4895,0.4948,0.5048,0.5059,0.4934,0.4933,0.4931,0,0.4099,0.4222,0.4311,0.4347,0.4439,0.448,0.4521,0.4587,0.4634,0.4702,0.4732,0.4809,0.4851,0.491,0.495,0.4927,0.5057,0.5034,0.5078,0.5077,0.5105,0.5102,0.5211,0.5132,0.5131,0.5131,0.5131,0,0.4194,0.4268,0.4332,0.4387,0.447,0.4511,0.4592,0.4633,0.4692,0.4755,0.4777,0.4836,0.4886,0.4951,0.4984,0.5069,0.5088,0.5109,0.5117,0.5107,0.5104,0.5133,0.5128,0.5134,0.5134,0.5133,0.5132,0,0.4257,0.4303,0.4401,0.448,0.4501,0.4559,0.4626,0.4679,0.4718,0.4796,0.4817,0.4877,0.4954,0.5001,0.5099,0.512,0.5214,0.522,0.519,0.5194,0.5235,0.523,0.5366,0.5385,0.5293,0.5294,0.5295,0,0.4314,0.4371,0.4455,0.4498,0.4539,0.4608,0.4655,0.4697,0.4745,0.4827,0.487,0.4948,0.5013,0.5135,0.5187,0.5261,0.5269,0.5311,0.528,0.5267,0.5267,0.5263,0.5268,0.5316,0.5317,0.5317,0.5318,0,0.4409,0.4428,0.4495,0.457,0.4625,0.4686,0.4746,0.478,0.4832,0.4885,0.4963,0.5013,0.5112,0.5189,0.5267,0.5309,0.5322,0.5327,0.5341,0.5331,0.5311,0.532,0.5203,0.5324,0.5323,0.5323,0.5323,0.5322,0.447,0.4521,0.4587,0.466,0.471,0.4765,0.4819,0.4863,0.4929,0.5012,0.5032,0.5114,0.5179,0.5286,0.5329,0.5393,0.5386,0.5407,0.5412,0.5416,0.5416,0.5301,0.5407,0.5407,0.5407,0.5407,0.5407,0,0.4565,0.4608,0.4675,0.4758,0.4815,0.4821,0.4888,0.4935,0.5007,0.5066,0.5129,0.5218,0.5292,0.5349,0.5424,0.5464,0.5472,0.5483,0.548,0.5488,0.5419,0.5398,0.5475,0.5475,0.5475,0.5475,0.5475,0.5475,0.4621,0.4707,0.4734,0.4843,0.4886,0.4966,0.5003,0.5054,0.5101,0.5199,0.526,0.5297,0.5355,0.5434,0.5502,0.5517,0.5543,0.5552,0.5568,0.5501,0.5494,0.5487,0.5468,0.5558,0.5558,0.5632,0.5633,0.5633]},{"header":{"parameterUnit":"m.s-1","parameterCategory":1,"la1":30.2991,"la2":30.254,"lo1":-89.0895,"lo2":-89.0444,"dy":0.0017,"dx":0.0017,"nx":28,"ny":28,"refTime":"2025-09-11T21:00:00:Z","depth":0,"parameterNumber":3,"parameterNumberName":"V-component_of_WINDS"},"data":[0,0,0,0,0,0,0,0,0,0,0,0,0,0,0,0,0,0,0,0,0,0,0,0,0,0,0,0,0,0,0,0,0,0,0,0,0,0,0,0,0,0,0,0,0,0,0,0,0,0,0,0,0,0,0,0,0,0,2.247,2.247,0,2.2537,2.2538,2.2539,2.2449,2.2446,2.2443,2.244,2.2509,2.2514,2.2519,0,0,0,0,0,0,0,0,0,0,0,0,0,2.2261,2.2266,2.247,2.247,2.2471,2.2537,2.2538,2.2539,2.245,2.2446,2.2442,2.2438,2.2507,2.2513,2.2519,0,0,0,0,0,0,0,0,0,0,0,0,0,2.2343,2.2267,2.2469,2.2435,2.2432,2.2537,2.2538,2.2539,2.2451,2.2446,2.2441,2.2436,2.2506,2.2513,2.252,2.2662,0,0,2.2542,2.2545,0,0,0,0,0,0,0,0,2.2338,2.235,2.2439,2.2437,2.2435,2.248,2.249,2.258,2.2452,2.2444,2.244,2.2434,2.2503,2.251,2.2534,2.2665,2.2668,2.2543,2.2547,2.255,2.2552,0,0,0,0,0,0,0,2.2333,2.2347,2.2496,2.244,2.2438,2.2415,2.2421,2.2507,2.25,2.2444,2.2438,2.2447,2.2501,2.2527,2.2535,2.2669,2.2543,2.2549,2.2553,2.2556,2.2914,2.2919,0,0,0,0,0,0,2.2331,2.2343,2.2494,2.2498,2.2374,2.2423,2.243,2.247,2.2499,2.2498,2.2451,2.2442,2.2517,2.2526,2.2537,2.27,2.255,2.2557,2.2561,2.2909,2.2915,2.292,0,0,0,0,0,0,2.2327,2.2346,2.2491,2.2419,2.2436,2.2431,2.2478,2.2474,2.25,2.2504,2.2502,2.2479,2.2513,2.2527,2.263,2.2701,2.256,2.2567,2.2903,2.2911,2.2918,2.303,0,0,0,0,0,0,2.2322,2.2345,2.2399,2.2421,2.244,2.2584,2.2482,2.2479,2.2512,2.2502,2.2529,2.2529,2.2511,2.2619,2.2637,2.2708,2.2573,2.2896,2.2906,2.2915,2.302,2.304,2.3058,0,0,0,0,0,2.2314,2.243,2.2402,2.2421,2.2508,2.2589,2.26,2.2576,2.2519,2.2572,2.2574,2.2528,2.2692,2.2631,2.265,2.2725,2.2891,2.2903,2.2914,2.3011,2.3036,2.3058,0,0,0,0,0,0,2.2417,2.2432,2.2402,2.2528,2.2558,2.2574,2.2641,2.2604,2.2651,2.2639,2.2608,2.2615,2.2724,2.2736,2.2668,2.286,2.2782,2.2798,2.2849,2.2873,2.2892,2.2885,2.2579,0,0,0,0,0,2.2455,2.2519,2.2529,2.2638,2.2655,2.2646,2.268,2.2659,2.2689,2.2701,2.2711,2.2741,2.2798,2.2837,2.2891,2.3022,2.3024,2.3083,2.3102,2.3118,2.313,2.3195,2.322,2.2958,2.2958,2.2958,0,0,2.2533,2.2548,2.2591,2.2659,2.268,2.2746,2.2657,2.2732,2.2779,2.2712,2.2808,2.2817,2.2849,2.2965,2.3017,2.2978,2.3204,2.3132,2.3145,2.3149,2.321,2.3235,2.3257,2.2966,2.2965,2.2963,0,0,2.2706,2.2727,2.2818,2.284,2.2872,2.2864,2.2886,2.2908,2.291,2.3006,2.2956,2.3013,2.3114,2.3136,2.3161,2.3341,2.3298,2.336,2.3459,2.3523,2.3543,2.3561,2.362,2.3642,2.3374,2.3374,2.3374,0,2.2798,2.2896,2.287,2.2946,2.2976,2.2918,2.3008,2.3031,2.3079,2.31,2.3056,2.3178,2.3196,2.3314,2.3357,2.3382,2.3403,2.3355,2.3542,2.356,2.3577,2.3632,2.3655,2.3381,2.338,2.3379,2.3379,0,2.3005,2.3074,2.3143,2.3189,2.3227,2.3311,2.3295,2.3337,2.3312,2.3309,2.3406,2.3425,2.3479,2.3506,2.3485,2.3621,2.3594,2.3548,2.3467,2.3609,2.366,2.3682,2.339,2.3388,2.3386,2.3384,0,0,2.3245,2.3273,2.3298,2.3316,2.3346,2.3397,2.3478,2.3529,2.3563,2.3599,2.3662,2.3748,2.3703,2.3731,2.3711,2.3768,2.3902,2.3713,2.3713,2.3743,2.4048,2.4079,2.4105,2.3876,2.388,2.3883,2.4043,0,2.3414,2.355,2.3527,2.3659,2.3719,2.3664,2.3733,2.3758,2.3757,2.3807,2.3806,2.3865,2.3804,2.382,2.3874,2.3875,2.3962,2.3863,2.3931,2.3934,2.392,2.4133,2.4167,2.4317,2.4064,2.4067,2.407,0,2.3629,2.3669,2.3807,2.3823,2.3847,2.391,2.3953,2.4003,2.4029,2.4024,2.4055,2.4023,2.41,2.4021,2.4125,2.4058,2.4085,2.4089,2.4094,2.4096,2.4007,2.4135,2.4365,2.4386,2.4102,2.41,2.4097,0,2.3783,2.3873,2.3964,2.3982,2.4005,2.4049,2.4061,2.4082,2.4114,2.4152,2.4171,2.4219,2.4244,2.4281,2.4262,2.4207,2.4367,2.4288,2.4362,2.4362,2.4395,2.4392,2.4627,2.4421,2.4421,2.442,2.442,0,2.3971,2.4056,2.4033,2.4089,2.4182,2.4155,2.4247,2.4252,2.4271,2.4325,2.4283,2.4335,2.4309,2.4359,2.4346,2.4431,2.4444,2.444,2.4434,2.4441,2.444,2.4454,2.4441,2.4426,2.4425,2.4424,2.4423,0,2.4157,2.4146,2.4241,2.4254,2.426,2.4327,2.4337,2.4388,2.4384,2.4454,2.4468,2.4461,2.4517,2.4503,2.4566,2.4556,2.4661,2.4646,2.4652,2.4646,2.4719,2.471,2.4967,2.4997,2.4776,2.4778,2.478,0,2.4276,2.4339,2.4358,2.4391,2.4405,2.446,2.449,2.4467,2.45,2.4533,2.458,2.4632,2.4672,2.4764,2.4764,2.481,2.4791,2.4878,2.4798,2.4801,2.4786,2.478,2.4784,2.4893,2.4895,2.4897,2.4899,0,2.4485,2.4475,2.4521,2.4565,2.4602,2.4636,2.4665,2.4695,2.4672,2.4712,2.4768,2.4799,2.4861,2.4912,2.4954,2.4964,2.4927,2.4925,2.4943,2.4948,2.4947,2.4943,2.469,2.4918,2.4916,2.4915,2.4914,2.4913,2.4637,2.4689,2.4709,2.476,2.4779,2.4807,2.4854,2.4855,2.4901,2.4948,2.4932,2.4995,2.5016,2.5069,2.5084,2.5132,2.5099,2.5128,2.5134,2.514,2.5146,2.4944,2.5141,2.514,2.514,2.5139,2.5139,0,2.4839,2.4849,2.4897,2.4937,2.4977,2.494,2.4969,2.5005,2.506,2.5084,2.5123,2.5186,2.5234,2.5237,2.5282,2.532,2.5303,2.5332,2.5326,2.5328,2.5176,2.5153,2.5344,2.5344,2.5344,2.5344,2.5344,2.5344,2.4949,2.5032,2.5025,2.5117,2.5126,2.5187,2.5206,2.523,2.5248,2.5319,2.5359,2.536,2.5374,2.542,2.5462,2.5461,2.5477,2.5511,2.5504,2.5361,2.534,2.532,2.5298,2.5517,2.5517,2.5651,2.5653,2.5654]}]]